[[{"header":{"parameterUnit":"m.s-1","parameterCategory":2,"la1":30.2991,"la2":30.254,"lo1":-89.0895,"lo2":-89.0444,"dy":0.0017,"dx":0.0017,"nx":28,"ny":28,"refTime":"2023-04-25T21:00:00:Z","depth":"0","parameterNumber":2,"parameterNumberName":"U-component_of_CURRENTS"},"data":[0,0,0,0,0,0,0,0,0,0,0,0,0,0,0,0,0,0,0,0,0,0,0,0,0,0,0,0,0,0,0,0,0,0,0,0,0,0,0,0,0,0,0,0,0,0,0,0,0,0,0,0,0,0,0,0,0,0,-0.28,-0.2804,0,-0.3156,-0.316,-0.3164,-0.3273,-0.3272,-0.3271,-0.3269,-0.3237,-0.3238,-0.3238,0,0,0,0,0,0,0,0,0,0,0,0,0,-0.2486,-0.2488,-0.2799,-0.2804,-0.2809,-0.3156,-0.316,-0.3165,-0.3273,-0.3272,-0.327,-0.3269,-0.3237,-0.3238,-0.3238,0,0,0,0,0,0,0,0,0,0,0,0,0,-0.2704,-0.2489,-0.2798,-0.2909,-0.2923,-0.3155,-0.316,-0.3166,-0.3274,-0.3272,-0.327,-0.3268,-0.3237,-0.3238,-0.3238,-0.3279,0,0,-0.3239,-0.324,0,0,0,0,0,0,0,0,-0.2691,-0.2714,-0.2888,-0.2902,-0.2918,-0.3173,-0.3039,-0.3186,-0.3274,-0.3135,-0.3269,-0.3267,-0.3185,-0.319,-0.3259,-0.3277,-0.3276,-0.324,-0.324,-0.324,-0.324,0,0,0,0,0,0,0,-0.2675,-0.2702,-0.2935,-0.2894,-0.2912,-0.3036,-0.3061,-0.307,-0.3154,-0.3147,-0.3157,-0.3206,-0.3189,-0.3258,-0.3257,-0.3275,-0.324,-0.324,-0.324,-0.324,-0.3172,-0.317,0,0,0,0,0,0,-0.2631,-0.2686,-0.2924,-0.2946,-0.2804,-0.3042,-0.3071,-0.3089,-0.3163,-0.3178,-0.3207,-0.321,-0.3258,-0.3257,-0.3256,-0.325,-0.324,-0.324,-0.3241,-0.3174,-0.3172,-0.3169,0,0,0,0,0,0,-0.2622,-0.2647,-0.291,-0.2831,-0.2873,-0.3048,-0.3069,-0.3097,-0.3164,-0.3215,-0.322,-0.3245,-0.3257,-0.3255,-0.324,-0.325,-0.3241,-0.3241,-0.3177,-0.3173,-0.317,-0.3271,0,0,0,0,0,0,-0.2611,-0.2641,-0.264,-0.2826,-0.2876,-0.3018,-0.3072,-0.3105,-0.3201,-0.3207,-0.3248,-0.3245,-0.3255,-0.3239,-0.3241,-0.325,-0.3241,-0.3179,-0.3175,-0.3171,-0.327,-0.3272,-0.3273,0,0,0,0,0,-0.2598,-0.2597,-0.2637,-0.2667,-0.2867,-0.3019,-0.3054,-0.3171,-0.3203,-0.3225,-0.3245,-0.3243,-0.3213,-0.324,-0.3241,-0.3251,-0.3181,-0.3176,-0.3172,-0.327,-0.3271,-0.3273,0,0,0,0,0,0,-0.2477,-0.2615,-0.2661,-0.2706,-0.284,-0.3038,-0.3069,-0.3171,-0.3224,-0.3192,-0.3244,-0.3242,-0.3229,-0.3206,-0.3235,-0.3205,-0.3186,-0.3181,-0.3259,-0.3261,-0.3262,-0.3254,-0.3242,0,0,0,0,0,-0.2447,-0.2466,-0.2639,-0.2675,-0.2718,-0.2895,-0.2974,-0.3053,-0.3138,-0.3165,-0.3216,-0.3214,-0.3218,-0.3211,-0.3203,-0.3204,-0.3174,-0.3192,-0.3194,-0.3196,-0.3181,-0.3136,-0.3134,-0.3154,-0.3154,-0.3154,0,0,-0.2422,-0.2494,-0.2514,-0.265,-0.2744,-0.2816,-0.2932,-0.302,-0.3106,-0.3139,-0.3217,-0.3225,-0.3215,-0.3221,-0.3209,-0.3202,-0.3178,-0.319,-0.3193,-0.3176,-0.3131,-0.313,-0.3129,-0.3151,-0.3151,-0.3152,0,0,-0.2376,-0.242,-0.2423,-0.2505,-0.2633,-0.2744,-0.2764,-0.2947,-0.3037,-0.312,-0.3154,-0.3169,-0.3197,-0.3216,-0.322,-0.321,-0.3188,-0.3186,-0.3201,-0.3159,-0.3159,-0.3158,-0.3157,-0.3155,-0.3187,-0.3187,-0.3188,0,-0.2338,-0.237,-0.2457,-0.2478,-0.2547,-0.2699,-0.2741,-0.2864,-0.3036,-0.3106,-0.3115,-0.3189,-0.3199,-0.3223,-0.3232,-0.3222,-0.3194,-0.3219,-0.3168,-0.3165,-0.3163,-0.3161,-0.3158,-0.3192,-0.3191,-0.3191,-0.319,0,-0.2307,-0.233,-0.2329,-0.2398,-0.2478,-0.253,-0.2697,-0.2793,-0.291,-0.3046,-0.3119,-0.3159,-0.3202,-0.321,-0.3233,-0.3225,-0.3214,-0.3186,-0.3184,-0.3168,-0.3166,-0.3161,-0.3198,-0.3196,-0.3195,-0.3194,0,0,-0.2238,-0.2298,-0.2298,-0.2336,-0.2435,-0.2524,-0.2615,-0.279,-0.289,-0.3007,-0.3119,-0.3167,-0.3214,-0.3215,-0.3247,-0.3225,-0.323,-0.3203,-0.3199,-0.3239,-0.3157,-0.2898,-0.2868,-0.3192,-0.319,-0.3189,-0.3181,0,-0.2199,-0.2229,-0.2268,-0.2325,-0.2368,-0.2487,-0.2592,-0.2747,-0.2891,-0.3027,-0.3096,-0.3183,-0.3213,-0.3241,-0.3229,-0.3239,-0.3211,-0.3236,-0.3132,-0.3129,-0.293,-0.285,-0.2717,-0.2672,-0.3175,-0.3174,-0.3174,0,-0.2155,-0.2201,-0.2239,-0.2342,-0.2369,-0.2424,-0.2611,-0.2726,-0.2911,-0.3014,-0.3088,-0.3162,-0.3215,-0.3202,-0.3201,-0.3213,-0.318,-0.3164,-0.3162,-0.287,-0.2856,-0.2754,-0.2643,-0.2648,-0.3165,-0.3166,-0.3167,0,-0.2118,-0.2177,-0.2223,-0.2251,-0.2387,-0.2444,-0.2535,-0.2721,-0.2859,-0.3002,-0.3082,-0.3141,-0.3185,-0.3149,-0.3139,-0.3179,-0.307,-0.3128,-0.2858,-0.2844,-0.2677,-0.2645,-0.2575,-0.305,-0.305,-0.305,-0.305,0,-0.2065,-0.2102,-0.2217,-0.2248,-0.2372,-0.2434,-0.2579,-0.27,-0.2839,-0.2914,-0.3073,-0.3077,-0.316,-0.313,-0.3107,-0.2934,-0.3043,-0.2823,-0.2789,-0.2705,-0.2677,-0.2625,-0.2676,-0.3049,-0.3049,-0.3049,-0.3049,0,-0.2017,-0.2061,-0.2169,-0.231,-0.2359,-0.2466,-0.2631,-0.2692,-0.2853,-0.2932,-0.2968,-0.3067,-0.2953,-0.2986,-0.2903,-0.2869,-0.267,-0.2638,-0.254,-0.2488,-0.2226,-0.2286,-0.2119,-0.2059,-0.2389,-0.2382,-0.2376,0,-0.199,-0.2028,-0.2243,-0.2283,-0.2342,-0.2485,-0.2531,-0.2708,-0.274,-0.2848,-0.282,-0.2795,-0.2663,-0.2509,-0.2377,-0.2254,-0.2326,-0.2108,-0.2125,-0.2132,-0.2182,-0.2252,-0.2224,-0.201,-0.2001,-0.1994,-0.1989,0,-0.1946,-0.2039,-0.2119,-0.2232,-0.2293,-0.2393,-0.2447,-0.251,-0.2597,-0.2641,-0.2509,-0.2412,-0.2226,-0.1983,-0.1846,-0.177,-0.2038,-0.1951,-0.1998,-0.1859,-0.1896,-0.1848,-0.2154,-0.1927,-0.1933,-0.1938,-0.1941,-0.1944,-0.1906,-0.1967,-0.2022,-0.2124,-0.217,-0.2144,-0.2185,-0.2168,-0.217,-0.2114,-0.2095,-0.1904,-0.1777,-0.1502,-0.1417,-0.1311,-0.1448,-0.1366,-0.1449,-0.1528,-0.1396,-0.1525,-0.1203,-0.1205,-0.1207,-0.1208,-0.1209,0,-0.178,-0.1787,-0.1853,-0.1914,-0.1859,-0.1959,-0.1975,-0.1939,-0.1813,-0.1711,-0.1577,-0.136,-0.1163,-0.1114,-0.0988,-0.0929,-0.0998,-0.0953,-0.1124,-0.1128,-0.1274,-0.1176,-0.078,-0.078,-0.078,-0.078,-0.078,-0.078,-0.1679,-0.1634,-0.1666,-0.1525,-0.1553,-0.1478,-0.1468,-0.1428,-0.1367,-0.1118,-0.0982,-0.0857,-0.0871,-0.0946,-0.0876,-0.0825,-0.0904,-0.0802,-0.0895,-0.1121,-0.1172,-0.1221,-0.1141,-0.0743,-0.0743,-0.0719,-0.0719,-0.0719]},{"header":{"parameterUnit":"m.s-1","parameterCategory":2,"la1":30.2991,"la2":30.254,"lo1":-89.0895,"lo2":-89.0444,"dy":0.0017,"dx":0.0017,"nx":28,"ny":28,"refTime":"2023-04-25T21:00:00:Z","depth":"0","parameterNumber":3,"parameterNumberName":"V-component_of_CURRENTS"},"data":[0,0,0,0,0,0,0,0,0,0,0,0,0,0,0,0,0,0,0,0,0,0,0,0,0,0,0,0,0,0,0,0,0,0,0,0,0,0,0,0,0,0,0,0,0,0,0,0,0,0,0,0,0,0,0,0,0,0,-0.0261,-0.0259,0,-0.004,-0.0037,-0.0034,0.0094,0.0094,0.0094,0.0095,0.0299,0.0304,0.0309,0,0,0,0,0,0,0,0,0,0,0,0,0,-0.0373,-0.0373,-0.0261,-0.0259,-0.0256,-0.0041,-0.0037,-0.0034,0.0094,0.0094,0.0094,0.0095,0.0297,0.0303,0.0309,0,0,0,0,0,0,0,0,0,0,0,0,0,-0.0253,-0.0372,-0.0261,-0.0169,-0.0159,-0.0041,-0.0037,-0.0033,0.0094,0.0094,0.0095,0.0095,0.0295,0.0302,0.031,0.0354,0,0,0.0334,0.0338,0,0,0,0,0,0,0,0,-0.026,-0.0248,-0.0185,-0.0175,-0.0164,-0.0003,-0.0002,0.0094,0.0094,0.0002,0.0095,0.0095,0.0193,0.021,0.0256,0.0363,0.0372,0.0335,0.034,0.0343,0.0345,0,0,0,0,0,0,0,-0.0269,-0.0256,-0.017,-0.0183,-0.017,-0.0071,-0.0055,0.0018,0.0096,0.001,0.0019,0.0038,0.02,0.0248,0.0262,0.0375,0.0335,0.0342,0.0347,0.035,0.0524,0.0524,0,0,0,0,0,0,-0.0314,-0.0265,-0.0177,-0.0164,-0.0216,-0.007,-0.0052,-0.0052,0.0096,0.0118,0.0037,0.0043,0.0235,0.0252,0.0269,0.0286,0.0343,0.0351,0.0355,0.0524,0.0524,0.0524,0,0,0,0,0,0,-0.0318,-0.0309,-0.0186,-0.021,-0.0189,-0.007,-0.007,-0.0048,-0.0002,0.0116,0.0138,0.0058,0.0235,0.0258,0.0335,0.0296,0.0354,0.0361,0.0525,0.0524,0.0524,0.0347,0,0,0,0,0,0,-0.0322,-0.0312,-0.0323,-0.0215,-0.0189,-0.0134,-0.007,-0.0044,0.0007,0.0017,0.0142,0.0162,0.0237,0.0323,0.0343,0.0308,0.0367,0.0525,0.0525,0.0524,0.0353,0.034,0.033,0,0,0,0,0,-0.0327,-0.0347,-0.0325,-0.0314,-0.0211,-0.0135,-0.0112,-0.0023,0.0007,0.0021,0.0112,0.0157,0.0336,0.033,0.0354,0.0319,0.0525,0.0525,0.0524,0.0358,0.0343,0.033,0,0,0,0,0,0,-0.0394,-0.0333,-0.0307,-0.0306,-0.0236,-0.0115,-0.0095,-0.0035,0.0051,0.0051,0.0168,0.0195,0.0241,0.0317,0.0308,0.0373,0.0433,0.0437,0.0298,0.0285,0.0274,0.0212,0.0374,0,0,0,0,0,-0.042,-0.0423,-0.034,-0.0337,-0.0316,-0.021,-0.0167,-0.0114,-0.0026,0.0013,0.0108,0.0197,0.0261,0.0301,0.0376,0.042,0.0459,0.0414,0.0403,0.0392,0.0361,0.0354,0.0337,0.0524,0.0524,0.0524,0,0,-0.0439,-0.0411,-0.0407,-0.0352,-0.0294,-0.0276,-0.0183,-0.0141,-0.0126,0.0019,0.0073,0.016,0.0265,0.0309,0.0335,0.0366,0.0374,0.0392,0.0381,0.0356,0.0351,0.0332,0.0316,0.0523,0.0523,0.0523,0,0,-0.0485,-0.0466,-0.0483,-0.0446,-0.0386,-0.0329,-0.0328,-0.0221,-0.0177,-0.0106,-0.0019,0.0045,0.0179,0.0228,0.0271,0.0246,0.031,0.0275,0.0169,0.0162,0.0144,0.013,0.0201,0.0193,0.0272,0.0272,0.0271,0,-0.051,-0.0529,-0.047,-0.048,-0.0467,-0.0369,-0.0384,-0.0327,-0.0202,-0.0189,-0.0116,0.0028,0.013,0.0138,0.0144,0.0211,0.0244,0.0203,0.0139,0.0125,0.0113,0.0189,0.0183,0.0263,0.0264,0.0265,0.0266,0,-0.0563,-0.0582,-0.0592,-0.0586,-0.0562,-0.056,-0.0495,-0.047,-0.0401,-0.0335,-0.0292,-0.0151,-0.0075,-0.0029,0.0062,0.002,0.0087,0.0115,0.0154,0.0082,0.017,0.0167,0.0251,0.0254,0.0256,0.0258,0,0,-0.0607,-0.0628,-0.0631,-0.068,-0.0628,-0.0636,-0.063,-0.0607,-0.0628,-0.051,-0.0515,-0.0392,-0.0323,-0.027,-0.0167,-0.0149,-0.0161,-0.0058,-0.0054,-0.002,-0.0132,0.0046,0.0062,-0.0163,-0.0166,-0.0168,-0.0021,0,-0.0664,-0.0758,-0.0717,-0.0801,-0.0859,-0.0793,-0.08,-0.0776,-0.0709,-0.0682,-0.0583,-0.0532,-0.0417,-0.0378,-0.0356,-0.0191,-0.0185,-0.02,-0.0038,-0.0032,0.0105,0.0057,0.0086,0.0228,-0.0023,-0.0023,-0.0024,0,-0.0716,-0.0799,-0.0904,-0.0982,-0.0994,-0.1018,-0.1061,-0.1045,-0.0988,-0.0929,-0.0882,-0.0768,-0.0693,-0.0595,-0.0439,-0.0455,-0.0332,-0.0215,-0.0207,0.0007,0.0138,0.0256,0.0233,0.034,-0.0027,-0.0027,-0.0027,0,-0.0832,-0.0916,-0.1033,-0.1056,-0.1117,-0.1162,-0.1176,-0.1142,-0.1112,-0.1093,-0.1023,-0.0972,-0.0836,-0.0768,-0.0443,-0.0478,-0.0235,-0.0256,0.0003,0.0021,0.0103,0.0132,0.0166,-0.0229,-0.0229,-0.023,-0.023,0,-0.0905,-0.0997,-0.1122,-0.1197,-0.1346,-0.1326,-0.14,-0.1399,-0.1322,-0.1228,-0.1167,-0.1021,-0.0871,-0.0656,-0.0506,-0.019,-0.0287,-0.0027,0.0047,0.0056,0.0078,0.0226,0.0261,-0.0224,-0.0225,-0.0226,-0.0227,0,-0.0977,-0.1036,-0.122,-0.1367,-0.1403,-0.1527,-0.151,-0.1492,-0.1447,-0.1308,-0.1282,-0.1032,-0.0741,-0.054,-0.0297,-0.0166,0.0135,0.0157,0.0217,0.0295,0.0566,0.0592,0.0737,0.0834,0.0376,0.0381,0.0386,0,-0.101,-0.1115,-0.137,-0.1432,-0.1491,-0.1614,-0.1595,-0.1579,-0.1477,-0.1233,-0.1104,-0.0823,-0.0517,-0.0102,0.0117,0.0355,0.0414,0.0527,0.043,0.0583,0.0663,0.0669,0.0736,0.049,0.0495,0.0499,0.0502,0,-0.1076,-0.1182,-0.1326,-0.1489,-0.1545,-0.1593,-0.1558,-0.1503,-0.1338,-0.1176,-0.0811,-0.0583,-0.0153,0.0187,0.0494,0.0617,0.0605,0.0616,0.0706,0.0698,0.0765,0.0897,0.0455,0.0536,0.0533,0.053,0.0528,0.0527,-0.1102,-0.122,-0.1364,-0.1501,-0.1532,-0.1464,-0.1425,-0.1248,-0.1062,-0.0668,-0.055,-0.0117,0.0182,0.062,0.0789,0.1036,0.0947,0.1036,0.1045,0.1031,0.1131,0.0826,0.1037,0.1036,0.1036,0.1035,0.1035,0,-0.1099,-0.1172,-0.1294,-0.1426,-0.1388,-0.1428,-0.1262,-0.1082,-0.0746,-0.0401,-0.0075,0.0375,0.0704,0.0969,0.125,0.14,0.1389,0.1461,0.1394,0.1435,0.1099,0.1111,0.1429,0.1429,0.1429,0.1429,0.1428,0.1428,-0.1079,-0.116,-0.1232,-0.121,-0.1247,-0.111,-0.0984,-0.0653,-0.0354,0.0222,0.0591,0.0817,0.1076,0.1375,0.1643,0.1675,0.178,0.1794,0.1877,0.1557,0.1514,0.1473,0.149,0.1883,0.1883,0.2178,0.218,0.2182]}],[{"header":{"parameterUnit":"m.s-1","parameterCategory":2,"la1":30.2991,"la2":30.254,"lo1":-89.0895,"lo2":-89.0444,"dy":0.0017,"dx":0.0017,"nx":28,"ny":28,"refTime":"2023-04-25T21:00:00:Z","depth":"2","parameterNumber":2,"parameterNumberName":"U-component_of_CURRENTS"},"data":[0,0,0,0,0,0,0,0,0,0,0,0,0,0,0,0,0,0,0,0,0,0,0,0,0,0,0,0,0,0,0,0,0,0,0,0,0,0,0,0,0,0,0,0,0,0,0,0,0,0,0,0,0,0,0,0,0,0,-0.2419,-0.242,0,-0.2522,-0.2524,-0.2525,-0.2549,-0.2548,-0.2547,-0.2546,-0.277,-0.2776,-0.2783,0,0,0,0,0,0,0,0,0,0,0,0,0,-0.2276,-0.2278,-0.2419,-0.242,-0.2421,-0.2522,-0.2524,-0.2526,-0.255,-0.2548,-0.2547,-0.2546,-0.2767,-0.2775,-0.2784,0,0,0,0,0,0,0,0,0,0,0,0,0,-0.2358,-0.2279,-0.2419,-0.2443,-0.2446,-0.2522,-0.2524,-0.2526,-0.255,-0.2548,-0.2547,-0.2545,-0.2765,-0.2775,-0.2785,-0.288,0,0,-0.2817,-0.2821,0,0,0,0,0,0,0,0,-0.2353,-0.2363,-0.2438,-0.2441,-0.2444,-0.2518,-0.2555,-0.2649,-0.255,-0.2514,-0.2546,-0.2544,-0.2696,-0.2711,-0.2738,-0.289,-0.29,-0.2817,-0.2824,-0.2828,-0.2831,0,0,0,0,0,0,0,-0.2347,-0.2359,-0.2464,-0.2439,-0.2443,-0.2459,-0.2469,-0.2573,-0.2617,-0.2517,-0.2518,-0.2524,-0.2698,-0.2727,-0.2743,-0.2903,-0.2817,-0.2826,-0.2833,-0.2837,-0.3075,-0.3075,0,0,0,0,0,0,-0.2328,-0.2354,-0.246,-0.2466,-0.239,-0.2462,-0.2474,-0.2499,-0.2614,-0.2627,-0.2526,-0.2525,-0.2711,-0.2731,-0.2751,-0.2762,-0.2828,-0.2838,-0.2844,-0.3075,-0.3075,-0.3075,0,0,0,0,0,0,-0.2325,-0.2337,-0.2456,-0.2408,-0.2424,-0.2466,-0.2494,-0.2502,-0.2518,-0.2618,-0.2635,-0.2531,-0.271,-0.2737,-0.2803,-0.2775,-0.2842,-0.2852,-0.3075,-0.3075,-0.3075,-0.2854,0,0,0,0,0,0,-0.2321,-0.2336,-0.2344,-0.2408,-0.2426,-0.2471,-0.2496,-0.2505,-0.2523,-0.2523,-0.263,-0.2649,-0.2711,-0.2787,-0.2813,-0.2791,-0.286,-0.3074,-0.3075,-0.3075,-0.2861,-0.2847,-0.2834,0,0,0,0,0,-0.2316,-0.2322,-0.2345,-0.2357,-0.2437,-0.247,-0.2481,-0.2508,-0.2524,-0.252,-0.2581,-0.2645,-0.2807,-0.2795,-0.2826,-0.2806,-0.3074,-0.3075,-0.3075,-0.2867,-0.285,-0.2835,0,0,0,0,0,0,-0.2258,-0.2327,-0.2352,-0.2379,-0.241,-0.2472,-0.2473,-0.2504,-0.2553,-0.2559,-0.265,-0.2673,-0.2731,-0.281,-0.2794,-0.288,-0.2953,-0.2959,-0.2785,-0.2769,-0.2756,-0.2692,-0.2869,0,0,0,0,0,-0.2253,-0.2274,-0.2338,-0.2351,-0.237,-0.2426,-0.2443,-0.2468,-0.252,-0.2539,-0.2606,-0.269,-0.2764,-0.2792,-0.2887,-0.2931,-0.2955,-0.2943,-0.2929,-0.2916,-0.2889,-0.2875,-0.2855,-0.3076,-0.3076,-0.3076,0,0,-0.2232,-0.227,-0.2282,-0.2339,-0.2372,-0.2392,-0.2432,-0.2454,-0.2454,-0.2563,-0.2584,-0.2664,-0.2775,-0.2811,-0.2844,-0.2862,-0.2869,-0.2916,-0.2904,-0.2883,-0.2873,-0.285,-0.283,-0.3076,-0.3076,-0.3076,0,0,-0.2194,-0.2238,-0.2245,-0.2273,-0.2318,-0.2355,-0.2357,-0.2418,-0.2421,-0.2468,-0.2534,-0.2555,-0.2709,-0.2716,-0.2759,-0.2734,-0.2816,-0.2808,-0.266,-0.2646,-0.2625,-0.2608,-0.2597,-0.258,-0.2775,-0.2775,-0.2774,0,-0.2163,-0.2193,-0.2245,-0.2259,-0.2275,-0.2334,-0.2342,-0.2358,-0.2422,-0.2423,-0.2453,-0.2584,-0.2643,-0.265,-0.2614,-0.2691,-0.272,-0.2698,-0.2618,-0.2602,-0.2588,-0.2581,-0.2565,-0.2764,-0.2765,-0.2766,-0.2767,0,-0.2139,-0.2161,-0.2162,-0.2205,-0.2226,-0.2238,-0.2277,-0.2287,-0.2317,-0.2337,-0.236,-0.2414,-0.2482,-0.2495,-0.2538,-0.2478,-0.2544,-0.2612,-0.2634,-0.255,-0.2552,-0.2539,-0.2749,-0.2753,-0.2756,-0.2759,0,0,-0.2079,-0.2136,-0.2136,-0.2151,-0.2203,-0.2221,-0.2213,-0.2225,-0.2233,-0.2242,-0.224,-0.2253,-0.2278,-0.2324,-0.237,-0.2307,-0.2191,-0.2392,-0.2397,-0.2336,-0.2172,-0.2106,-0.2087,-0.2256,-0.2253,-0.225,-0.2206,0,-0.2043,-0.2056,-0.2097,-0.2101,-0.2116,-0.2163,-0.2161,-0.2175,-0.2202,-0.2214,-0.219,-0.2243,-0.2219,-0.2263,-0.2174,-0.2252,-0.2153,-0.2198,-0.2304,-0.2306,-0.2219,-0.2067,-0.1917,-0.1855,-0.2195,-0.2193,-0.2191,0,-0.2009,-0.2026,-0.2028,-0.2072,-0.2084,-0.2092,-0.2121,-0.2127,-0.2139,-0.2171,-0.2152,-0.2205,-0.2126,-0.2141,-0.2066,-0.2115,-0.2091,-0.2097,-0.2098,-0.2099,-0.2214,-0.2005,-0.1821,-0.2171,-0.2172,-0.2174,-0.2175,0,-0.1947,-0.1978,-0.1976,-0.1989,-0.2045,-0.2044,-0.2068,-0.2099,-0.2125,-0.2146,-0.2197,-0.214,-0.2156,-0.2094,-0.2058,-0.2093,-0.1987,-0.2064,-0.1953,-0.1952,-0.187,-0.1865,-0.1942,-0.1942,-0.1943,-0.1943,-0.1943,0,-0.1897,-0.19,-0.1946,-0.1947,-0.1959,-0.2003,-0.2027,-0.2056,-0.2112,-0.2112,-0.2161,-0.2149,-0.2145,-0.21,-0.2048,-0.1936,-0.1972,-0.1871,-0.1906,-0.1793,-0.1781,-0.2117,-0.2138,-0.1941,-0.1941,-0.1942,-0.1942,0,-0.1841,-0.1863,-0.1877,-0.192,-0.1932,-0.194,-0.2024,-0.2046,-0.2112,-0.2121,-0.2138,-0.2171,-0.21,-0.2071,-0.1998,-0.1935,-0.1854,-0.1795,-0.1654,-0.1669,-0.1838,-0.1849,-0.1688,-0.1685,-0.1682,-0.168,-0.1678,0,-0.1817,-0.1814,-0.1858,-0.1861,-0.1879,-0.191,-0.1936,-0.2024,-0.2041,-0.2083,-0.2062,-0.2057,-0.1964,-0.1863,-0.176,-0.1654,-0.1733,-0.1487,-0.148,-0.1745,-0.1798,-0.1814,-0.1828,-0.1299,-0.1294,-0.129,-0.1286,0,-0.1773,-0.179,-0.1792,-0.1803,-0.1817,-0.185,-0.1871,-0.1896,-0.1944,-0.1961,-0.1893,-0.1839,-0.1737,-0.1551,-0.1464,-0.1385,-0.1504,-0.1401,-0.1691,-0.1388,-0.1374,-0.1429,-0.1456,-0.125,-0.1254,-0.1257,-0.1259,-0.126,-0.173,-0.1723,-0.1713,-0.1709,-0.1731,-0.1711,-0.1677,-0.1699,-0.1682,-0.1606,-0.164,-0.1502,-0.1478,-0.1243,-0.1148,-0.1105,-0.1218,-0.1188,-0.1202,-0.122,-0.1184,-0.1165,-0.0996,-0.0998,-0.1,-0.1001,-0.1003,0,-0.163,-0.1613,-0.1619,-0.1579,-0.1543,-0.1596,-0.1568,-0.1486,-0.137,-0.1349,-0.126,-0.108,-0.0958,-0.0952,-0.0806,-0.0789,-0.0799,-0.078,-0.0794,-0.0829,-0.086,-0.0808,-0.0519,-0.0518,-0.0517,-0.0516,0,0,-0.1563,-0.1502,-0.1493,-0.1365,-0.1348,-0.1226,-0.1167,-0.1067,-0.1007,-0.0872,-0.0808,-0.0857,-0.0888,-0.0695,-0.0656,-0.0558,-0.069,-0.0527,-0.0908,-0.0956,-0.0986,-0.1081,-0.1037,0,0,0,0,0]},{"header":{"parameterUnit":"m.s-1","parameterCategory":2,"la1":30.2991,"la2":30.254,"lo1":-89.0895,"lo2":-89.0444,"dy":0.0017,"dx":0.0017,"nx":28,"ny":28,"refTime":"2023-04-25T21:00:00:Z","depth":"2","parameterNumber":3,"parameterNumberName":"V-component_of_CURRENTS"},"data":[0,0,0,0,0,0,0,0,0,0,0,0,0,0,0,0,0,0,0,0,0,0,0,0,0,0,0,0,0,0,0,0,0,0,0,0,0,0,0,0,0,0,0,0,0,0,0,0,0,0,0,0,0,0,0,0,0,0,-0.0319,-0.0318,0,-0.0234,-0.0233,-0.0232,-0.0164,-0.0163,-0.0162,-0.0161,0.0077,0.0082,0.0087,0,0,0,0,0,0,0,0,0,0,0,0,0,-0.0381,-0.0381,-0.0319,-0.0318,-0.0317,-0.0234,-0.0233,-0.0232,-0.0164,-0.0163,-0.0162,-0.0161,0.0075,0.0081,0.0088,0,0,0,0,0,0,0,0,0,0,0,0,0,-0.0334,-0.0381,-0.032,-0.027,-0.0265,-0.0234,-0.0233,-0.0232,-0.0164,-0.0163,-0.0161,-0.016,0.0073,0.008,0.0088,0.0109,0,0,0.0113,0.0117,0,0,0,0,0,0,0,0,-0.0337,-0.0332,-0.0279,-0.0274,-0.0267,-0.0205,-0.0167,-0.0109,-0.0165,-0.0206,-0.0161,-0.0159,-0.0003,0.0012,0.0018,0.012,0.0131,0.0114,0.0119,0.0122,0.0125,0,0,0,0,0,0,0,-0.034,-0.0335,-0.0289,-0.0278,-0.027,-0.0238,-0.023,-0.0157,-0.0113,-0.0202,-0.0196,-0.0182,0.0001,0.001,0.0025,0.0134,0.0114,0.0121,0.0126,0.0129,0.04,0.0402,0,0,0,0,0,0,-0.0348,-0.0339,-0.0291,-0.0286,-0.0296,-0.0238,-0.0229,-0.0229,-0.0117,-0.0099,-0.0183,-0.0179,-0.0005,0.0015,0.0033,0.0106,0.0122,0.013,0.0135,0.0398,0.0401,0.0403,0,0,0,0,0,0,-0.035,-0.0346,-0.0295,-0.0307,-0.0297,-0.0238,-0.0239,-0.0228,-0.0218,-0.0104,-0.0083,-0.0183,-0.0003,0.0022,0.0075,0.0115,0.0134,0.0141,0.0395,0.0399,0.0402,0.0226,0,0,0,0,0,0,-0.0353,-0.0347,-0.0357,-0.0308,-0.0297,-0.0281,-0.0239,-0.0228,-0.021,-0.0204,-0.0097,-0.0073,0.0,0.0062,0.0083,0.0126,0.0147,0.0392,0.0397,0.0401,0.0229,0.0223,0.0218,0,0,0,0,0,-0.0356,-0.0376,-0.0359,-0.0353,-0.0311,-0.0281,-0.0274,-0.0228,-0.0212,-0.0213,-0.0157,-0.0077,0.0109,0.0066,0.0092,0.0139,0.039,0.0395,0.04,0.0231,0.0224,0.0218,0,0,0,0,0,0,-0.0409,-0.0369,-0.0349,-0.0357,-0.0322,-0.0268,-0.0268,-0.024,-0.0201,-0.0194,-0.0095,-0.0069,0.0024,0.0098,0.005,0.0243,0.0284,0.0294,0.0147,0.0142,0.0136,0.0102,0.0154,0,0,0,0,0,-0.0427,-0.0431,-0.0382,-0.0389,-0.0376,-0.0327,-0.0312,-0.0281,-0.0236,-0.0219,-0.0147,-0.0045,0.0066,0.0105,0.0216,0.0268,0.0319,0.0339,0.0333,0.0327,0.0323,0.0386,0.0383,0.042,0.042,0.042,0,0,-0.0445,-0.0427,-0.0427,-0.04,-0.0373,-0.036,-0.0316,-0.03,-0.0281,-0.0195,-0.016,-0.0061,0.0082,0.0163,0.0215,0.0219,0.0346,0.0334,0.0326,0.0327,0.0391,0.0386,0.0382,0.0424,0.0423,0.0423,0,0,-0.0485,-0.0474,-0.0487,-0.0467,-0.0431,-0.0396,-0.0396,-0.0348,-0.0319,-0.0284,-0.0183,-0.0107,0.0037,0.0129,0.0204,0.0232,0.0329,0.0318,0.0233,0.0292,0.0287,0.0284,0.0324,0.0325,0.0294,0.0294,0.0293,0,-0.0508,-0.0517,-0.0486,-0.0492,-0.0476,-0.0417,-0.0419,-0.0384,-0.0326,-0.0291,-0.0282,-0.0071,0.0022,0.0144,0.0155,0.0215,0.0262,0.0225,0.0275,0.0273,0.0273,0.0315,0.0318,0.0286,0.0287,0.0288,0.0288,0,-0.0549,-0.0556,-0.0564,-0.0548,-0.0531,-0.0525,-0.0468,-0.0443,-0.0403,-0.035,-0.0241,-0.0149,-0.002,0.004,0.0093,0.0177,0.0215,0.0263,0.0262,0.0256,0.0304,0.031,0.0275,0.0277,0.028,0.0282,0,0,-0.0588,-0.0591,-0.0591,-0.0589,-0.056,-0.0542,-0.0517,-0.0455,-0.042,-0.0362,-0.0309,-0.0166,-0.0113,-0.0025,0.0068,0.0093,0.0102,0.0154,0.0161,0.0141,0.0221,0.0237,0.0247,0.015,0.0151,0.0151,0.0245,0,-0.062,-0.0645,-0.0636,-0.0642,-0.0641,-0.0592,-0.0568,-0.0506,-0.0444,-0.0381,-0.0277,-0.0186,-0.0131,-0.0086,-0.0045,0.0099,0.0118,0.0072,0.0279,0.0284,0.0255,0.0255,0.0228,0.0309,0.0252,0.0253,0.0254,0,-0.0653,-0.0662,-0.0685,-0.0672,-0.0667,-0.0663,-0.06,-0.0572,-0.0466,-0.0424,-0.0337,-0.0242,-0.0153,-0.013,0.0042,0.0013,0.0098,0.017,0.0177,0.0259,0.0314,0.032,0.0325,0.0266,0.0265,0.0265,0.0264,0,-0.0679,-0.0689,-0.0706,-0.0705,-0.0686,-0.0679,-0.0658,-0.0577,-0.0555,-0.0455,-0.0429,-0.0288,-0.0221,-0.0103,0.0051,0.0049,0.0221,0.0249,0.0338,0.034,0.0394,0.0399,0.0339,0.0339,0.0339,0.0339,0.0339,0,-0.0711,-0.0721,-0.0718,-0.0731,-0.0732,-0.0708,-0.0703,-0.0654,-0.0602,-0.0563,-0.0456,-0.0397,-0.0215,-0.0084,0.004,0.0215,0.0222,0.0323,0.0367,0.0335,0.0334,0.0371,0.0374,0.0342,0.0342,0.0341,0.034,0,-0.0746,-0.0743,-0.076,-0.0754,-0.0753,-0.0752,-0.0763,-0.0763,-0.07,-0.065,-0.0633,-0.0471,-0.0292,-0.0114,0.01,0.0205,0.036,0.0414,0.0351,0.0386,0.0437,0.043,0.0519,0.0521,0.0522,0.0523,0.0524,0,-0.0768,-0.0787,-0.0795,-0.0814,-0.082,-0.0829,-0.0854,-0.0816,-0.0809,-0.0686,-0.0659,-0.0485,-0.0331,-0.0023,0.0187,0.0404,0.0407,0.0484,0.0473,0.0421,0.0456,0.0448,0.044,0.0474,0.0474,0.0474,0.0474,0,-0.0821,-0.0827,-0.0849,-0.0888,-0.0914,-0.0939,-0.095,-0.0948,-0.0881,-0.0819,-0.0674,-0.0547,-0.024,0.0019,0.0284,0.0399,0.0446,0.0496,0.0485,0.0425,0.0385,0.0417,0.0409,0.0477,0.0477,0.0477,0.0476,0.0476,-0.0863,-0.0892,-0.0932,-0.0958,-0.0992,-0.101,-0.1012,-0.1004,-0.0956,-0.0816,-0.0687,-0.0474,-0.0227,0.0163,0.0353,0.0511,0.0509,0.0543,0.054,0.0537,0.0508,0.0472,0.0574,0.0574,0.0574,0.0574,0.0575,0,-0.0909,-0.0951,-0.1007,-0.1027,-0.1069,-0.1066,-0.1057,-0.1033,-0.0948,-0.0816,-0.0656,-0.0369,-0.0085,0.0154,0.0418,0.0575,0.0555,0.0585,0.0537,0.0533,0.0531,0.0499,0.0564,0.0564,0.0565,0.0565,0,0,-0.0936,-0.1001,-0.1028,-0.1079,-0.1101,-0.1109,-0.1081,-0.1022,-0.0917,-0.0761,-0.0606,-0.0387,-0.0082,0.0108,0.0313,0.0447,0.0438,0.0445,0.0436,0.0351,0.0346,0.0489,0.0435,0,0,0,0,0]}],[{"header":{"parameterUnit":"m.s-1","parameterCategory":2,"la1":30.2991,"la2":30.254,"lo1":-89.0895,"lo2":-89.0444,"dy":0.0017,"dx":0.0017,"nx":28,"ny":28,"refTime":"2023-04-25T21:00:00:Z","depth":"4","parameterNumber":2,"parameterNumberName":"U-component_of_CURRENTS"},"data":[0,0,0,0,0,0,0,0,0,0,0,0,0,0,0,0,0,0,0,0,0,0,0,0,0,0,0,0,0,0,0,0,0,0,0,0,0,0,0,0,0,0,0,0,0,0,0,0,0,0,0,0,0,0,0,0,0,0,-0.1782,-0.1782,0,-0.1748,-0.1747,-0.1745,-0.1721,-0.1721,-0.1722,-0.1723,-0.1615,-0.1612,-0.1608,0,0,0,0,0,0,0,0,0,0,0,0,0,-0.1666,-0.1668,-0.1782,-0.1782,-0.1783,-0.1748,-0.1747,-0.1745,-0.172,-0.1721,-0.1722,-0.1723,-0.1616,-0.1612,-0.1608,0,0,0,0,0,0,0,0,0,0,0,0,0,-0.1673,-0.1669,-0.1782,-0.1774,-0.1773,-0.1748,-0.1747,-0.1745,-0.172,-0.1721,-0.1722,-0.1723,-0.1618,-0.1613,-0.1607,-0.1554,0,0,-0.1591,-0.1589,0,0,0,0,0,0,0,0,-0.1673,-0.1676,-0.1774,-0.1774,-0.1774,-0.1748,-0.1667,-0.1681,-0.172,-0.173,-0.1723,-0.1724,-0.1658,-0.165,-0.1628,-0.1549,-0.1545,-0.1591,-0.1588,-0.1585,-0.1584,0,0,0,0,0,0,0,-0.1673,-0.1677,-0.1758,-0.1775,-0.1775,-0.1717,-0.172,-0.1668,-0.168,-0.1729,-0.173,-0.1741,-0.1657,-0.1633,-0.1625,-0.1543,-0.1591,-0.1586,-0.1583,-0.1581,-0.1545,-0.1547,0,0,0,0,0,0,-0.1705,-0.1678,-0.176,-0.1758,-0.1736,-0.172,-0.1722,-0.1747,-0.1682,-0.1677,-0.174,-0.174,-0.1642,-0.1632,-0.1622,-0.16,-0.1585,-0.1581,-0.1577,-0.1543,-0.1546,-0.1548,0,0,0,0,0,0,-0.1702,-0.1713,-0.1761,-0.1724,-0.1727,-0.1723,-0.175,-0.1746,-0.1754,-0.1693,-0.1684,-0.1758,-0.1642,-0.1629,-0.1623,-0.1594,-0.1578,-0.1573,-0.1541,-0.1544,-0.1547,-0.1528,0,0,0,0,0,0,-0.1699,-0.1712,-0.1738,-0.1727,-0.1731,-0.1761,-0.175,-0.1745,-0.1763,-0.1763,-0.1704,-0.1693,-0.1642,-0.1631,-0.1617,-0.1587,-0.1569,-0.1538,-0.1542,-0.1546,-0.1526,-0.153,-0.1534,0,0,0,0,0,-0.1695,-0.1714,-0.1739,-0.1749,-0.1768,-0.1762,-0.1757,-0.1749,-0.1764,-0.1761,-0.175,-0.1697,-0.1648,-0.1628,-0.1612,-0.1579,-0.1536,-0.1541,-0.1546,-0.1524,-0.1529,-0.1534,0,0,0,0,0,0,-0.1664,-0.1715,-0.1741,-0.1774,-0.1784,-0.1762,-0.1764,-0.177,-0.1756,-0.1768,-0.1714,-0.1702,-0.1677,-0.1661,-0.1641,-0.1595,-0.1586,-0.1588,-0.1576,-0.158,-0.1584,-0.1587,-0.1565,0,0,0,0,0,-0.1679,-0.1712,-0.1744,-0.1767,-0.1784,-0.1785,-0.1786,-0.179,-0.1781,-0.1778,-0.1738,-0.1715,-0.1678,-0.1662,-0.1623,-0.1596,-0.1592,-0.1577,-0.1581,-0.1584,-0.1584,-0.1584,-0.1587,-0.1564,-0.1564,-0.1564,0,0,-0.1673,-0.1705,-0.1724,-0.1764,-0.1772,-0.1783,-0.1785,-0.1801,-0.1796,-0.1766,-0.1744,-0.1716,-0.1679,-0.1641,-0.1631,-0.1627,-0.1591,-0.159,-0.1592,-0.159,-0.1589,-0.1591,-0.1592,-0.1568,-0.1567,-0.1567,0,0,-0.1659,-0.1714,-0.1735,-0.1754,-0.1791,-0.1792,-0.1813,-0.1816,-0.1808,-0.1799,-0.1773,-0.175,-0.17,-0.1654,-0.1628,-0.1644,-0.1609,-0.1644,-0.1654,-0.1654,-0.1655,-0.1655,-0.1649,-0.1649,-0.165,-0.165,-0.165,0,-0.1651,-0.1689,-0.1732,-0.1753,-0.1768,-0.1807,-0.1818,-0.1812,-0.1806,-0.1799,-0.1802,-0.1745,-0.1694,-0.1651,-0.1649,-0.1639,-0.1652,-0.1621,-0.1654,-0.1654,-0.1655,-0.1649,-0.1649,-0.1649,-0.1649,-0.1649,-0.1649,0,-0.1647,-0.1685,-0.1696,-0.1745,-0.1761,-0.1778,-0.1802,-0.1806,-0.1815,-0.1806,-0.1784,-0.1739,-0.1708,-0.1684,-0.1656,-0.1637,-0.1648,-0.1648,-0.1625,-0.1655,-0.1648,-0.1648,-0.1649,-0.1649,-0.1649,-0.1649,0,0,-0.1605,-0.168,-0.1687,-0.171,-0.1765,-0.1772,-0.1783,-0.179,-0.1798,-0.179,-0.1783,-0.1714,-0.1715,-0.1692,-0.1662,-0.1655,-0.164,-0.1658,-0.1659,-0.1625,-0.1653,-0.154,-0.1529,-0.1656,-0.1656,-0.1656,-0.1644,0,-0.1588,-0.1623,-0.1664,-0.1688,-0.1709,-0.1753,-0.1753,-0.177,-0.1778,-0.1778,-0.176,-0.1738,-0.1714,-0.17,-0.169,-0.1652,-0.1644,-0.1644,-0.1655,-0.1655,-0.1527,-0.1526,-0.1657,-0.1644,-0.1644,-0.1644,-0.1644,0,-0.1568,-0.1595,-0.1621,-0.167,-0.1685,-0.1701,-0.1729,-0.1733,-0.1754,-0.1761,-0.1768,-0.1767,-0.174,-0.1729,-0.1695,-0.1708,-0.168,-0.1659,-0.1659,-0.1558,-0.1541,-0.1615,-0.1644,-0.1644,-0.1644,-0.1644,-0.1644,0,-0.1508,-0.1563,-0.1581,-0.16,-0.1659,-0.1671,-0.1695,-0.1724,-0.1736,-0.1756,-0.1778,-0.1771,-0.1764,-0.175,-0.1697,-0.1708,-0.1672,-0.1677,-0.1555,-0.1547,-0.1659,-0.1659,-0.1659,-0.1659,-0.166,-0.166,-0.166,0,-0.1463,-0.1486,-0.156,-0.157,-0.1593,-0.1639,-0.166,-0.1684,-0.1725,-0.1727,-0.1768,-0.1761,-0.1774,-0.1757,-0.1718,-0.1624,-0.1686,-0.1545,-0.153,-0.1655,-0.1655,-0.1659,-0.1659,-0.1659,-0.1659,-0.1659,-0.1659,0,-0.1403,-0.1451,-0.1485,-0.1548,-0.157,-0.1587,-0.1659,-0.1667,-0.1713,-0.1723,-0.1733,-0.1766,-0.1718,-0.1719,-0.1675,-0.1623,-0.1557,-0.1511,-0.1639,-0.1634,-0.1434,-0.1434,-0.1378,-0.1374,-0.137,-0.1367,-0.1365,0,-0.1376,-0.1388,-0.147,-0.1489,-0.1523,-0.1562,-0.1584,-0.165,-0.1652,-0.1691,-0.1676,-0.1677,-0.1671,-0.1525,-0.154,-0.1472,-0.145,-0.143,-0.143,-0.1411,-0.1403,-0.1409,-0.1413,-0.1359,-0.1358,-0.1357,-0.1356,0,-0.1323,-0.1367,-0.1389,-0.1428,-0.1463,-0.1494,-0.1522,-0.1519,-0.1558,-0.1644,-0.1557,-0.1518,-0.1469,-0.1424,-0.1383,-0.1336,-0.1452,-0.1393,-0.14,-0.1399,-0.1387,-0.1384,-0.1393,-0.1344,-0.1345,-0.1347,-0.1347,0,-0.1284,-0.1291,-0.132,-0.1335,-0.1385,-0.1368,-0.1411,-0.1385,-0.1399,-0.1441,-0.1403,-0.1393,-0.143,-0.135,-0.1306,-0.1256,-0.1238,-0.1211,-0.1228,-0.1242,-0.1201,-0.1167,-0.1028,0,0,0,0,0,-0.1225,-0.1201,-0.1219,-0.1212,-0.1259,-0.1271,-0.1332,-0.1369,-0.1421,-0.132,-0.1351,-0.1283,-0.1208,-0.1218,-0.1133,-0.1254,-0.1254,-0.1154,-0.1235,-0.1275,-0.1289,-0.1253,0,0,0,0,0,0,-0.1173,-0.1185,-0.1172,-0.1094,-0.1064,-0.1086,-0.1115,-0.1161,-0.1106,-0.1173,-0.1134,-0.1202,-0.1148,-0.1211,-0.1097,-0.1102,-0.1128,-0.1171,-0.1167,-0.1266,-0.1279,-0.1291,-0.126,0,0,0,0,0]},{"header":{"parameterUnit":"m.s-1","parameterCategory":2,"la1":30.2991,"la2":30.254,"lo1":-89.0895,"lo2":-89.0444,"dy":0.0017,"dx":0.0017,"nx":28,"ny":28,"refTime":"2023-04-25T21:00:00:Z","depth":"4","parameterNumber":3,"parameterNumberName":"V-component_of_CURRENTS"},"data":[0,0,0,0,0,0,0,0,0,0,0,0,0,0,0,0,0,0,0,0,0,0,0,0,0,0,0,0,0,0,0,0,0,0,0,0,0,0,0,0,0,0,0,0,0,0,0,0,0,0,0,0,0,0,0,0,0,0,-0.0263,-0.0262,0,-0.0244,-0.0244,-0.0244,-0.0216,-0.0215,-0.0214,-0.0214,-0.0287,-0.029,-0.0293,0,0,0,0,0,0,0,0,0,0,0,0,0,-0.0286,-0.0287,-0.0263,-0.0262,-0.0262,-0.0244,-0.0244,-0.0244,-0.0217,-0.0215,-0.0214,-0.0213,-0.0286,-0.029,-0.0293,0,0,0,0,0,0,0,0,0,0,0,0,0,-0.0278,-0.0287,-0.0263,-0.0242,-0.0239,-0.0244,-0.0244,-0.0244,-0.0217,-0.0215,-0.0214,-0.0213,-0.0285,-0.0289,-0.0294,-0.035,0,0,-0.0307,-0.0309,0,0,0,0,0,0,0,0,-0.0278,-0.0278,-0.0246,-0.0243,-0.024,-0.0226,-0.0279,-0.0282,-0.0217,-0.0231,-0.0214,-0.0212,-0.0273,-0.0278,-0.0284,-0.0353,-0.0356,-0.0307,-0.031,-0.0312,-0.0313,0,0,0,0,0,0,0,-0.0279,-0.0278,-0.0261,-0.0245,-0.0242,-0.0236,-0.0234,-0.028,-0.0267,-0.023,-0.0226,-0.0216,-0.0273,-0.028,-0.0286,-0.0357,-0.0307,-0.0311,-0.0314,-0.0315,-0.0401,-0.0401,0,0,0,0,0,0,-0.0272,-0.0279,-0.0262,-0.026,-0.025,-0.0236,-0.0234,-0.0237,-0.0264,-0.0264,-0.0217,-0.0215,-0.0273,-0.0281,-0.0289,-0.0308,-0.0312,-0.0316,-0.0318,-0.0402,-0.0401,-0.0401,0,0,0,0,0,0,-0.0273,-0.0271,-0.0262,-0.0264,-0.0261,-0.0237,-0.024,-0.0237,-0.0242,-0.0252,-0.0255,-0.0224,-0.0273,-0.0283,-0.0307,-0.0313,-0.0318,-0.0321,-0.0402,-0.0401,-0.0401,-0.0379,0,0,0,0,0,0,-0.0274,-0.0272,-0.0283,-0.0264,-0.0261,-0.0265,-0.0241,-0.0237,-0.0235,-0.0232,-0.026,-0.0265,-0.0272,-0.03,-0.0311,-0.0319,-0.0325,-0.0402,-0.0402,-0.0401,-0.038,-0.0378,-0.0376,0,0,0,0,0,-0.0275,-0.0295,-0.0284,-0.0282,-0.0274,-0.0265,-0.0265,-0.0245,-0.0237,-0.0245,-0.0245,-0.0264,-0.0304,-0.0304,-0.0317,-0.0326,-0.0403,-0.0402,-0.0401,-0.0381,-0.0378,-0.0376,0,0,0,0,0,0,-0.0314,-0.0292,-0.028,-0.0294,-0.0278,-0.0258,-0.0267,-0.0253,-0.0262,-0.0264,-0.0271,-0.0277,-0.0301,-0.0317,-0.0316,-0.0345,-0.0354,-0.0355,-0.0334,-0.0332,-0.033,-0.0282,-0.0328,0,0,0,0,0,-0.0326,-0.0336,-0.0307,-0.032,-0.0314,-0.0294,-0.0292,-0.0277,-0.0273,-0.0276,-0.0288,-0.03,-0.0312,-0.0322,-0.0345,-0.0373,-0.0338,-0.0382,-0.038,-0.0378,-0.0346,-0.0275,-0.0262,-0.0399,-0.0399,-0.0399,0,0,-0.0342,-0.0334,-0.0337,-0.0328,-0.0319,-0.0312,-0.0291,-0.0291,-0.0277,-0.0288,-0.0294,-0.0309,-0.0319,-0.0334,-0.0346,-0.0345,-0.0329,-0.0377,-0.0376,-0.0343,-0.0273,-0.0259,-0.0247,-0.0398,-0.0398,-0.0398,0,0,-0.0373,-0.0374,-0.0385,-0.0376,-0.0359,-0.0341,-0.034,-0.0324,-0.0309,-0.0318,-0.0309,-0.0301,-0.0353,-0.0325,-0.0325,-0.0327,-0.0326,-0.0362,-0.0309,-0.0242,-0.0229,-0.0217,-0.0183,-0.0169,-0.0353,-0.0353,-0.0353,0,-0.0391,-0.0397,-0.0388,-0.0392,-0.0379,-0.0353,-0.0349,-0.0335,-0.0325,-0.0299,-0.0318,-0.0311,-0.0331,-0.0292,-0.0287,-0.0319,-0.0295,-0.0321,-0.0236,-0.0223,-0.0211,-0.0179,-0.0163,-0.0352,-0.0352,-0.0352,-0.0352,0,-0.0418,-0.0423,-0.0432,-0.042,-0.0411,-0.0408,-0.0372,-0.036,-0.0344,-0.0313,-0.0283,-0.0285,-0.0264,-0.028,-0.0288,-0.0221,-0.0238,-0.0247,-0.0237,-0.0196,-0.0166,-0.0149,-0.035,-0.0351,-0.0351,-0.0351,0,0,-0.0445,-0.0448,-0.0449,-0.0439,-0.0422,-0.041,-0.0385,-0.0332,-0.0295,-0.028,-0.0226,-0.0217,-0.0197,-0.0191,-0.0196,-0.0134,-0.0051,-0.0156,-0.0153,-0.0112,0.0077,0.0013,0.0024,-0.0049,-0.0045,-0.0042,0.0055,0,-0.0459,-0.0468,-0.0464,-0.0456,-0.0446,-0.0414,-0.0389,-0.034,-0.0299,-0.0249,-0.0193,-0.0172,-0.017,-0.0171,-0.0097,-0.0077,-0.0002,-0.0077,0.0024,0.0027,-0.0025,0.0044,-0.0031,0.0067,0.0071,0.0074,0.0075,0,-0.0473,-0.0471,-0.0473,-0.0448,-0.0441,-0.0438,-0.0368,-0.0346,-0.0258,-0.0228,-0.0156,-0.0128,-0.0041,-0.0058,0.0078,0.0023,0.0069,0.01,0.0104,0.0059,-0.0004,0.0024,0.0106,0.0103,0.0101,0.0099,0.0097,0,-0.0473,-0.047,-0.0467,-0.0464,-0.0439,-0.0426,-0.0408,-0.0336,-0.0318,-0.0215,-0.0203,-0.0071,-0.0057,0.0064,0.0113,0.0104,0.0248,0.024,0.0243,0.0237,0.0254,0.0241,0.0378,0.0378,0.0378,0.0377,0.0377,0,-0.0474,-0.0473,-0.0471,-0.0472,-0.0463,-0.0438,-0.0423,-0.0375,-0.0328,-0.0311,-0.0204,-0.0176,-0.0027,0.0054,0.0142,0.0229,0.0278,0.0284,0.0278,0.0253,0.0239,0.0264,0.0249,0.0381,0.038,0.0379,0.0379,0,-0.0483,-0.048,-0.0483,-0.047,-0.0472,-0.0469,-0.0484,-0.0477,-0.0417,-0.0396,-0.0377,-0.0258,-0.0142,-0.0005,0.0161,0.022,0.0334,0.0353,0.03,0.0282,0.0278,0.0263,0.0408,0.0407,0.0406,0.0405,0.0404,0,-0.0489,-0.0495,-0.0508,-0.0531,-0.0539,-0.0546,-0.0572,-0.053,-0.053,-0.0457,-0.0457,-0.0341,-0.0251,-0.005,0.0098,0.0297,0.0308,0.0366,0.0371,0.0313,0.0292,0.0278,0.0265,0.0403,0.0403,0.0403,0.0402,0,-0.0515,-0.0531,-0.0545,-0.0594,-0.063,-0.0658,-0.0682,-0.0682,-0.0637,-0.0599,-0.051,-0.0381,-0.0259,-0.0069,0.0066,0.0205,0.0339,0.0358,0.0362,0.0367,0.0309,0.0286,0.0274,0.0399,0.04,0.04,0.04,0,-0.0553,-0.0579,-0.0622,-0.0654,-0.071,-0.0746,-0.0742,-0.0736,-0.0717,-0.0617,-0.0598,-0.0427,-0.032,-0.012,0.0007,0.0139,0.0184,0.0226,0.0238,0.0243,0.0157,0.0057,0.0096,0,0,0,0,0,-0.0586,-0.0632,-0.0686,-0.0722,-0.0781,-0.08,-0.0815,-0.0802,-0.0752,-0.0702,-0.0637,-0.051,-0.029,-0.0187,-0.0061,-0.0015,0.0191,0.0132,0.0242,0.0383,0.0387,0.0308,0,0,0,0,0,0,-0.0614,-0.0679,-0.0698,-0.0778,-0.0812,-0.0871,-0.0871,-0.0836,-0.0781,-0.071,-0.0585,-0.0504,-0.0284,-0.0365,-0.0068,-0.0027,0.0053,0.0244,0.0246,0.0381,0.0384,0.0387,0.0308,0,0,0,0,0]}]]